STARLINK-3964, 52536

Orbit data source: Space-Track

STARLINK-3964, 52536 is a payload satellite owned by SpaceX/Seattle (US) in LEO that was launched on Fri, 13 May 2022 UTC via an FALCON 9 launch vehicle from the Air Force Western Test Range (AFWTR). Payload-class satellites include a variety of spacecraft equipped with specific instruments for various scientific and technological missions. These include communications satellites like Starlink; space stations such as the ISS; scientific satellites like the Hubble; Earth observation satellites from companies like Planet Labs, Umbra, and HawkEye 360; GPS; miniature CubeSats for education and research; and military/defense satellites.

Loading next visibility...
Identifier
52536, 2022-051D
Orbit
LEO
Country
Flag of USUS
Related business
Manufacturer
SpaceX/Seattle
Mission
Operational Commercial Communications
Bus & Motor
STARLINK, Unknown motor
Mass
297 kg wet, ~275 kg dry
Launch date (UTC)
2022-05-13 (4 years ago)
Launch vehicle
FALCON 9
Launch site
Air Force Western Test Range (AFWTR)
Object type
Payload
Rocket body
Debris
Shape & HBR
Box + 1 Pan, 10.1 m
Radar Cross Section
13.562 m², Large (>1 m²)

Expand to show TLE details & history
Last TLE update: 2 days ago

TLE from 2 days ago
0 STARLINK-3964
1 52536U 22051D   26171.31227552  .00000549  00000-0  52611-4 0  9992
2 52536  53.1598  28.3141 0001220  89.1068 271.0063 15.08834994226932
Epoch: 2026-06-20T07:29Z
TLE epoch observation values (Epoch: 2026-06-20T07:29:40.604Z)
Latitude
-0.00006°
Longitude
7.36617°
Altitude
540.635 km
Speed
7.593 km/s
True Right ascension
01h 53m 15s
True Declination
0° 00' 00"
Sunlit
Object was in daylight at epoch
Visualization orbit readout
Latitude
Unknown
Longitude
Unknown
Altitude
Unknown
Speed
Unknown
Apparent Right ascension
Unknown
Apparent Declination
Unknown
Sunlit
N/A
Visualization observer readout
Local Sidereal Time
21:32:45
Azimuth
Unknown
Elevation
Unknown
Doppler factor
Unknown
Orbital elements
Apogee altitude
540.857 km
Perigee altitude
539.169 km
Semi-major axis
6,918.15 km
Eccentricity
0.00012
Inclination
53.1598°
RAAN
28.3141°
Arg. of periapsis
89.1068°
True anomaly
270.99232°
Mean anomaly
271.0063°
Eccentric anomaly
270.99931°
Mean motion
3.77188 °/min
Orbital period
95.44 mins
BSTAR
0.000052611
Loading maneuver chart data...
Computing Atmospheric mass density...
Loading historical data...
Loading historical data...
Loading historical data...
Loading historical data...
Loading historical data...
Loading historical data...
Loading historical data...

Documentation

Showing up to 5 results
|